This is the latest recevied weather packets stored in our database for station/object SQ6XL-13. If no packets are shown the sender has not sent any weather packets the latest 10 day(s).
| Time | Temp. | Humidity | Pressure | Rain* | Wind** | Luminosity | Snow |
|---|---|---|---|---|---|---|---|
| 1787970785 | 15.56° C | 99% | 1014.5 hPa | 0 mm | - | - | - |
| 1787970285 | 15.56° C | 99% | 1014.7 hPa | 0 mm | - | - | - |
| 1787969765 | 15.56° C | 99% | 1014.8 hPa | 0 mm | - | - | - |
| 1787969245 | 15.56° C | 99% | 1014.9 hPa | 0 mm | - | - | - |
| 1787968705 | 15.56° C | 99% | 1015.1 hPa | 0 mm | - | - | - |
| 1787968130 | 16.11° C | 99% | 1014.9 hPa | 0 mm | - | - | - |
| 1787967615 | 16.11° C | 98% | 1014.4 hPa | 0 mm | - | - | - |
| 1787967025 | 16.11° C | 98% | 1014.4 hPa | 0 mm | - | - | - |
| 1787966435 | 17.22° C | 97% | 1014.6 hPa | 0 mm | - | - | - |
| 1787965927 | 17.78° C | 97% | 1014.5 hPa | 0 mm | - | - | - |
| 1787965340 | 17.78° C | 97% | 1014.1 hPa | 0 mm | - | - | - |
| 1787964800 | 17.78° C | 96% | 1014.1 hPa | 0 mm | - | - | - |
| 1787964300 | 17.78° C | 96% | 1013.9 hPa | 0 mm | - | - | - |
| 1787963755 | 17.78° C | 95% | 1013.8 hPa | 0 mm | - | - | - |
| 1787963210 | 18.33° C | 95% | 1013.6 hPa | 0 mm | - | - | - |
| 1787962620 | 18.33° C | 94% | 1013.6 hPa | 0 mm | - | - | - |
| 1787962065 | 18.89° C | 93% | 1013.3 hPa | 0 mm | - | - | - |
| 1787961507 | 18.89° C | 93% | 1013.2 hPa | 0 mm | - | - | - |
| 1787961007 | 18.89° C | 92% | 1012.8 hPa | 0 mm | - | - | - |
| 1787960510 | 18.89° C | 92% | 1012.7 hPa | 0 mm | - | - | - |
| 1787960005 | 18.89° C | 90% | 1012.9 hPa | 0 mm | - | - | - |
| 1787959480 | 19.44° C | 88% | 1013.2 hPa | 0 mm | - | - | - |
| 1787958905 | 20° C | 87% | 1013.3 hPa | 0 mm | - | - | - |
| 1787958387 | 20° C | 86% | 1013.4 hPa | 0 mm | - | - | - |
| 1787957805 | 20° C | 84% | 1013.3 hPa | 0 mm | - | - | - |
* Rain latest hour (hover to see other rain measurements)
** Current wind speed in m/s (hover to see current wind gust speed)